Location: Newark
(55.7167°N, 12.5667°E)
Time: 17:10:31
(UTC+00:00)

N. Korean satellite - Pass Details

Date: 16 December 2019
Orbit: 454 x 508 km, 97.2° (Epoch: 20 January)

Event Time Altitude Azimuth Distance (km) Brightness Sun altitude
Rises 03:58:23 0° 28° (NNE) 2,540 10.6 -28.4°
Reaches altitude 10° 04:01:17 10° 54° (NE) 1,642 9.9 -28.0°
Maximum altitude 04:03:13 14° 88° (E) 1,396 9.8 -27.7°
Drops below altitude 10° 04:05:09 10° 121° (ESE) 1,620 9.9 -27.4°
Sets 04:07:58 0° 148° (SSE) 2,479 10.6 -27.0°
